DLH6RL EDDH-LFPO

Flight info

Callsign DLH6RL
Flight time 1h 5m
Altitude 36000
Route HABFU1G HABFU Y348 MAWEQ DCT TOLVU/N0432F370 DCT RAPOR DCT RENSA
Aircraft A320/M-SDE3FGHIRWY/LB1

Departure

Time 2026-04-26 14:49
Airport Hamburg Helmut Schmidt Airport (EDDH)

Arrival

Time 2026-04-26 15:55
Airport Paris-Orly Airport (LFPO)
Time Latitude Longitude Altitude Speed Heading
2026-04-26 14:33 53.63451 10.00315 47 ft 0 kts 86°
2026-04-26 14:41 53.63449 10.00284 46 ft 4 kts 86°
2026-04-26 14:42 53.63448 10.00248 44 ft 3 kts 87°
2026-04-26 14:42 53.63450 10.00205 45 ft 4 kts 120°
2026-04-26 14:42 53.63466 10.00183 43 ft 2 kts 175°
2026-04-26 14:42 53.63467 10.00183 43 ft 0 kts 176°
2026-04-26 14:45 53.63462 10.00183 42 ft 4 kts 178°
2026-04-26 14:46 53.63449 10.00147 48 ft 9 kts 247°
2026-04-26 14:46 53.63409 10.00025 48 ft 12 kts 232°
2026-04-26 14:46 53.63358 9.99923 48 ft 11 kts 226°
2026-04-26 14:46 53.63312 9.99831 48 ft 10 kts 232°
2026-04-26 14:47 53.63244 9.99751 48 ft 13 kts 178°
2026-04-26 14:47 53.63170 9.99808 48 ft 11 kts 151°
2026-04-26 14:47 53.63076 9.99888 47 ft 22 kts 152°
2026-04-26 14:47 53.62952 9.99992 45 ft 17 kts 168°
2026-04-26 14:48 53.62885 9.99869 47 ft 15 kts 259°
2026-04-26 14:48 53.62891 9.99728 43 ft 12 kts 328°
2026-04-26 14:48 53.62904 9.99715 45 ft 0 kts 329°
2026-04-26 14:48 53.63017 9.99613 45 ft 56 kts 332°
2026-04-26 14:49 53.63590 9.99128 48 ft 124 kts 333°
2026-04-26 14:49 53.64509 9.98329 184 ft 163 kts 334°
2026-04-26 14:49 53.65530 9.97475 948 ft 163 kts 332°
2026-04-26 14:49 53.66555 9.96601 1644 ft 172 kts 332°
2026-04-26 14:50 53.67689 9.95620 2079 ft 194 kts 332°
2026-04-26 14:50 53.68961 9.94519 2681 ft 213 kts 331°
2026-04-26 14:50 53.70278 9.93365 3633 ft 214 kts 328°
2026-04-26 14:50 53.71282 9.91552 4480 ft 217 kts 293°
2026-04-26 14:51 53.71468 9.88931 4912 ft 244 kts 259°
2026-04-26 14:51 53.71020 9.86060 4999 ft 257 kts 252°
2026-04-26 14:51 53.70435 9.83212 5011 ft 257 kts 250°
2026-04-26 14:51 53.69813 9.80371 5014 ft 258 kts 250°
2026-04-26 14:52 53.69190 9.77491 5235 ft 267 kts 251°
2026-04-26 14:52 53.68572 9.74547 6366 ft 265 kts 251°
2026-04-26 14:52 53.67966 9.71599 7433 ft 267 kts 253°
2026-04-26 14:52 53.67364 9.68612 8391 ft 271 kts 254°
2026-04-26 14:53 53.66766 9.65617 9334 ft 275 kts 255°
2026-04-26 14:53 53.66148 9.62498 10289 ft 279 kts 255°
2026-04-26 14:53 53.65310 9.59540 11113 ft 289 kts 240°
2026-04-26 14:53 53.63954 9.56954 11802 ft 306 kts 224°
2026-04-26 14:54 53.62083 9.54925 12148 ft 332 kts 212°
2026-04-26 14:54 53.60013 9.53045 12840 ft 340 kts 211°
2026-04-26 14:54 53.57918 9.51154 13661 ft 344 kts 211°
2026-04-26 14:54 53.55791 9.49239 14444 ft 348 kts 212°
2026-04-26 14:55 53.53649 9.47304 15169 ft 351 kts 212°
2026-04-26 14:55 53.51493 9.45344 15910 ft 354 kts 212°
2026-04-26 14:55 53.49318 9.43361 16643 ft 356 kts 212°
2026-04-26 14:55 53.47133 9.41368 17379 ft 359 kts 212°
2026-04-26 14:56 53.44924 9.39355 18106 ft 362 kts 212°
2026-04-26 14:56 53.42697 9.37329 18786 ft 366 kts 212°
2026-04-26 14:56 53.40451 9.35287 19403 ft 368 kts 212°
2026-04-26 14:56 53.38190 9.33237 20002 ft 371 kts 212°
2026-04-26 14:57 53.35912 9.31171 20535 ft 374 kts 212°
2026-04-26 14:57 53.33604 9.29127 21160 ft 377 kts 208°
2026-04-26 14:57 53.31110 9.27626 21753 ft 385 kts 198°
2026-04-26 14:57 53.28492 9.26786 22325 ft 390 kts 194°
2026-04-26 14:58 53.25777 9.25991 22911 ft 393 kts 194°
2026-04-26 14:58 53.23109 9.25205 23487 ft 395 kts 194°
2026-04-26 14:58 53.20394 9.24399 24007 ft 398 kts 194°
2026-04-26 14:58 53.17656 9.23583 24467 ft 401 kts 194°
2026-04-26 14:59 53.14904 9.22761 24935 ft 403 kts 194°
2026-04-26 14:59 53.12098 9.21927 25394 ft 406 kts 194°
2026-04-26 14:59 53.09346 9.21111 25849 ft 408 kts 194°
2026-04-26 14:59 53.07451 9.20552 26151 ft 409 kts 194°
2026-04-26 15:00 53.03727 9.19453 26730 ft 413 kts 194°
2026-04-26 15:00 53.00885 9.18617 27134 ft 416 kts 194°
2026-04-26 15:00 52.98027 9.17778 27595 ft 417 kts 194°
2026-04-26 15:00 52.95224 9.16619 28018 ft 414 kts 203°
2026-04-26 15:01 52.92587 9.14735 28439 ft 412 kts 212°
2026-04-26 15:01 52.90052 9.12494 28811 ft 415 kts 212°
2026-04-26 15:01 52.87492 9.10241 29150 ft 419 kts 212°
2026-04-26 15:01 52.84912 9.07976 29529 ft 421 kts 212°
2026-04-26 15:02 52.82314 9.05700 29932 ft 424 kts 212°
2026-04-26 15:02 52.79693 9.03412 30329 ft 426 kts 212°
2026-04-26 15:02 52.77064 9.01123 30673 ft 428 kts 212°
2026-04-26 15:02 52.74422 8.98830 30980 ft 430 kts 212°
2026-04-26 15:03 52.71766 8.96525 31291 ft 432 kts 212°
2026-04-26 15:03 52.69100 8.94208 31601 ft 434 kts 212°
2026-04-26 15:03 52.66419 8.91878 31891 ft 436 kts 211°
2026-04-26 15:03 52.63737 8.89548 32262 ft 436 kts 211°
2026-04-26 15:04 52.61062 8.87225 32704 ft 434 kts 212°
2026-04-26 15:04 52.58393 8.84910 33127 ft 433 kts 212°
2026-04-26 15:04 52.55728 8.82604 33555 ft 432 kts 212°
2026-04-26 15:04 52.53067 8.80310 33971 ft 431 kts 212°
2026-04-26 15:05 52.50442 8.78058 34374 ft 431 kts 211°
2026-04-26 15:05 52.48651 8.76526 34606 ft 430 kts 211°
2026-04-26 15:05 52.37530 8.66983 35841 ft 431 kts 211°
2026-04-26 15:05 52.26950 8.57742 36946 ft 428 kts 218°
2026-04-26 15:06 52.17662 8.45627 37311 ft 423 kts 222°
2026-04-26 15:06 52.03790 8.27744 37302 ft 425 kts 222°
2026-04-26 15:07 51.84488 8.03014 37280 ft 425 kts 221°
2026-04-26 15:07 51.65821 7.79359 37263 ft 430 kts 221°
2026-04-26 15:08 51.46970 7.55743 37310 ft 431 kts 221°
2026-04-26 15:08 51.28007 7.32213 37297 ft 431 kts 221°
2026-04-26 15:09 51.08967 7.08884 37260 ft 432 kts 221°
2026-04-26 15:09 50.89847 6.85680 37293 ft 433 kts 221°
2026-04-26 15:10 50.73893 6.66481 37304 ft 434 kts 221°
2026-04-26 15:10 50.60993 6.51100 37176 ft 435 kts 221°
2026-04-26 15:10 50.51325 6.39652 37104 ft 435 kts 221°
2026-04-26 15:11 50.31929 6.16857 37126 ft 436 kts 221°
2026-04-26 15:11 50.12445 5.94181 37224 ft 436 kts 221°
2026-04-26 15:12 49.93048 5.71842 37144 ft 438 kts 221°
2026-04-26 15:12 49.89855 5.68184 36105 ft 449 kts 221°
2026-04-26 15:12 49.87344 5.65314 35588 ft 445 kts 221°
2026-04-26 15:13 49.84858 5.62482 35035 ft 442 kts 221°
2026-04-26 15:13 49.82392 5.59681 34465 ft 439 kts 221°
2026-04-26 15:13 49.79931 5.56887 33871 ft 437 kts 221°
2026-04-26 15:13 49.77493 5.54117 33341 ft 433 kts 221°
2026-04-26 15:14 49.75078 5.51372 32807 ft 429 kts 221°
2026-04-26 15:14 49.72687 5.48659 32258 ft 426 kts 221°
2026-04-26 15:14 49.70301 5.45962 31732 ft 422 kts 220°
2026-04-26 15:14 49.67944 5.43302 31207 ft 419 kts 220°
2026-04-26 15:15 49.65633 5.40594 30700 ft 413 kts 226°
2026-04-26 15:15 49.63664 5.37452 30184 ft 403 kts 236°
2026-04-26 15:15 49.62127 5.33910 29682 ft 392 kts 246°
2026-04-26 15:15 49.61027 5.30127 29235 ft 382 kts 255°
2026-04-26 15:16 49.60200 5.26254 28798 ft 379 kts 256°
2026-04-26 15:16 49.59378 5.22413 28370 ft 376 kts 256°
2026-04-26 15:16 49.58597 5.18630 27941 ft 373 kts 257°
2026-04-26 15:16 49.57889 5.14795 27518 ft 370 kts 258°
2026-04-26 15:17 49.57232 5.10978 27101 ft 367 kts 259°
2026-04-26 15:17 49.56800 5.08416 26826 ft 366 kts 259°
2026-04-26 15:17 49.55951 5.03415 26294 ft 363 kts 258°
2026-04-26 15:17 49.55301 4.99669 25911 ft 361 kts 258°
2026-04-26 15:18 49.54644 4.95948 25509 ft 359 kts 257°
2026-04-26 15:18 49.53987 4.92258 25116 ft 357 kts 257°
2026-04-26 15:18 49.53327 4.88564 24732 ft 355 kts 257°
2026-04-26 15:18 49.52673 4.84916 24357 ft 353 kts 257°
2026-04-26 15:19 49.52018 4.81279 23990 ft 352 kts 256°
2026-04-26 15:19 49.51362 4.77660 23580 ft 350 kts 256°
2026-04-26 15:19 49.50708 4.74051 23139 ft 348 kts 256°
2026-04-26 15:19 49.50060 4.70471 22711 ft 346 kts 256°
2026-04-26 15:20 49.49417 4.66911 22290 ft 344 kts 256°
2026-04-26 15:20 49.48774 4.63374 21875 ft 342 kts 256°
2026-04-26 15:20 49.48129 4.59859 21460 ft 340 kts 256°
2026-04-26 15:20 49.47489 4.56373 21056 ft 339 kts 256°
2026-04-26 15:21 49.46853 4.52898 20658 ft 337 kts 256°
2026-04-26 15:21 49.46225 4.49441 20258 ft 335 kts 257°
2026-04-26 15:21 49.45608 4.46044 19874 ft 333 kts 256°
2026-04-26 15:21 49.44977 4.42591 19481 ft 331 kts 256°
2026-04-26 15:22 49.44359 4.39234 19107 ft 330 kts 256°
2026-04-26 15:22 49.43736 4.35857 18722 ft 328 kts 256°
2026-04-26 15:22 49.43113 4.32487 18331 ft 327 kts 256°
2026-04-26 15:22 49.42492 4.29138 17894 ft 325 kts 256°
2026-04-26 15:23 49.41874 4.25812 17475 ft 324 kts 256°
2026-04-26 15:23 49.41257 4.22493 17057 ft 322 kts 256°
2026-04-26 15:23 49.40642 4.19188 16636 ft 321 kts 256°
2026-04-26 15:23 49.40028 4.15890 16239 ft 321 kts 256°
2026-04-26 15:24 49.39416 4.12604 15835 ft 320 kts 256°
2026-04-26 15:24 49.38804 4.09325 15438 ft 319 kts 255°
2026-04-26 15:24 49.38192 4.06047 15053 ft 319 kts 255°
2026-04-26 15:24 49.37579 4.02788 14664 ft 318 kts 255°
2026-04-26 15:25 49.36959 3.99526 14286 ft 318 kts 255°
2026-04-26 15:25 49.36510 3.97395 14029 ft 318 kts 250°
2026-04-26 15:25 49.35199 3.93324 13461 ft 317 kts 245°
2026-04-26 15:25 49.34194 3.90314 13043 ft 317 kts 244°
2026-04-26 15:26 49.33198 3.87317 12633 ft 316 kts 244°
2026-04-26 15:26 49.32203 3.84325 12228 ft 314 kts 244°
2026-04-26 15:26 49.31209 3.81340 11822 ft 313 kts 244°
2026-04-26 15:26 49.30222 3.78382 11424 ft 312 kts 244°
2026-04-26 15:27 49.29243 3.75452 11229 ft 304 kts 244°
2026-04-26 15:27 49.28287 3.72588 11235 ft 301 kts 244°
2026-04-26 15:27 49.27332 3.69735 11238 ft 301 kts 244°
2026-04-26 15:27 49.26361 3.66900 11236 ft 301 kts 243°
2026-04-26 15:28 49.25343 3.64142 11239 ft 301 kts 241°
2026-04-26 15:28 49.24282 3.61380 11232 ft 301 kts 240°
2026-04-26 15:28 49.23211 3.58626 11240 ft 302 kts 240°
2026-04-26 15:28 49.22139 3.55867 11237 ft 302 kts 241°
2026-04-26 15:29 49.21068 3.53094 11081 ft 302 kts 240°
2026-04-26 15:29 49.20003 3.50323 10646 ft 302 kts 240°
2026-04-26 15:29 49.17889 3.44834 10326 ft 298 kts 240°
2026-04-26 15:30 49.15811 3.39442 10101 ft 292 kts 240°
2026-04-26 15:30 49.14786 3.36769 10000 ft 291 kts 240°
2026-04-26 15:30 49.13764 3.34101 9898 ft 291 kts 240°
2026-04-26 15:31 49.12741 3.31438 9792 ft 291 kts 240°
2026-04-26 15:31 49.10693 3.26136 9578 ft 290 kts 240°
2026-04-26 15:31 49.09666 3.23487 9480 ft 289 kts 239°
2026-04-26 15:32 49.08308 3.19994 9338 ft 289 kts 239°
2026-04-26 15:32 49.06610 3.15610 9171 ft 288 kts 239°
2026-04-26 15:32 49.05591 3.12982 9073 ft 288 kts 240°
2026-04-26 15:33 49.04571 3.10358 8961 ft 287 kts 239°
2026-04-26 15:33 49.03552 3.07740 8846 ft 287 kts 239°
2026-04-26 15:33 49.02536 3.05134 8753 ft 285 kts 239°
2026-04-26 15:33 49.01523 3.02537 8653 ft 285 kts 239°
2026-04-26 15:34 49.00509 2.99942 8552 ft 285 kts 239°
2026-04-26 15:34 48.99838 2.98224 8486 ft 284 kts 239°
2026-04-26 15:34 48.98827 2.95640 8383 ft 284 kts 239°
2026-04-26 15:34 48.97819 2.93058 8280 ft 283 kts 239°
2026-04-26 15:35 48.96811 2.90479 8180 ft 283 kts 239°
2026-04-26 15:35 48.95803 2.87904 8075 ft 283 kts 239°
2026-04-26 15:35 48.94798 2.85340 7974 ft 282 kts 239°
2026-04-26 15:35 48.93792 2.82778 7864 ft 282 kts 239°
2026-04-26 15:36 48.92786 2.80218 7784 ft 281 kts 239°
2026-04-26 15:36 48.91783 2.77668 7684 ft 281 kts 239°
2026-04-26 15:36 48.90781 2.75120 7580 ft 280 kts 239°
2026-04-26 15:36 48.89780 2.72576 7464 ft 280 kts 239°
2026-04-26 15:37 48.88781 2.70039 7361 ft 280 kts 239°
2026-04-26 15:37 48.87780 2.67500 7260 ft 279 kts 239°
2026-04-26 15:37 48.86794 2.65009 7154 ft 279 kts 239°
2026-04-26 15:37 48.85795 2.62488 7062 ft 278 kts 239°
2026-04-26 15:38 48.84797 2.59972 6967 ft 278 kts 239°
2026-04-26 15:38 48.83800 2.57467 6858 ft 277 kts 239°
2026-04-26 15:38 48.82804 2.54966 6757 ft 277 kts 239°
2026-04-26 15:38 48.81812 2.52468 6663 ft 276 kts 239°
2026-04-26 15:39 48.80821 2.49972 6559 ft 276 kts 239°
2026-04-26 15:39 48.79829 2.47474 6459 ft 276 kts 239°
2026-04-26 15:39 48.78840 2.44987 6362 ft 275 kts 239°
2026-04-26 15:39 48.78185 2.43341 6293 ft 275 kts 239°
2026-04-26 15:40 48.76861 2.40024 6161 ft 275 kts 239°
2026-04-26 15:40 48.75871 2.37546 6068 ft 274 kts 239°
2026-04-26 15:40 48.74881 2.35074 5964 ft 274 kts 239°
2026-04-26 15:40 48.73895 2.32605 5866 ft 274 kts 239°
2026-04-26 15:41 48.72910 2.30141 5762 ft 274 kts 238°
2026-04-26 15:41 48.71919 2.27672 5676 ft 274 kts 238°
2026-04-26 15:41 48.70933 2.25213 5576 ft 273 kts 238°
2026-04-26 15:41 48.69946 2.22758 5474 ft 272 kts 238°
2026-04-26 15:42 48.68960 2.20309 5383 ft 273 kts 238°
2026-04-26 15:42 48.67973 2.17861 5123 ft 271 kts 238°
2026-04-26 15:42 48.66985 2.15418 4977 ft 272 kts 238°
2026-04-26 15:42 48.66016 2.13019 4877 ft 261 kts 238°
2026-04-26 15:43 48.65106 2.10758 4783 ft 249 kts 238°
2026-04-26 15:43 48.64217 2.08547 4692 ft 237 kts 238°
2026-04-26 15:43 48.62571 2.04475 4534 ft 220 kts 238°
2026-04-26 15:44 48.61765 2.02487 4449 ft 223 kts 238°
2026-04-26 15:44 48.60171 1.98548 4292 ft 212 kts 238°
2026-04-26 15:44 48.59454 1.96726 4269 ft 196 kts 239°
2026-04-26 15:45 48.58057 1.93582 4157 ft 169 kts 214°
2026-04-26 15:45 48.56990 1.92958 4077 ft 163 kts 181°
2026-04-26 15:46 48.55146 1.94214 4015 ft 146 kts 122°
2026-04-26 15:46 48.54768 1.95603 4018 ft 143 kts 95°
2026-04-26 15:46 48.54855 1.97063 4010 ft 140 kts 70°
2026-04-26 15:46 48.55151 1.97924 4024 ft 139 kts 50°
2026-04-26 15:47 48.56284 1.98824 3999 ft 140 kts 34°
2026-04-26 15:47 48.57945 2.00373 4011 ft 140 kts 34°
2026-04-26 15:47 48.58774 2.01140 4019 ft 140 kts 33°
2026-04-26 15:48 48.59605 2.01908 4013 ft 139 kts 33°
2026-04-26 15:48 48.60432 2.02674 4020 ft 140 kts 33°
2026-04-26 15:48 48.61326 2.03530 4023 ft 168 kts 37°
2026-04-26 15:48 48.62170 2.04785 4017 ft 171 kts 52°
2026-04-26 15:49 48.62408 2.05258 4014 ft 171 kts 55°
2026-04-26 15:49 48.62494 2.05439 4002 ft 171 kts 54°
2026-04-26 15:50 48.63153 2.07002 3791 ft 174 kts 59°
2026-04-26 15:50 48.63759 2.08607 3692 ft 177 kts 60°
2026-04-26 15:50 48.64352 2.10232 3486 ft 175 kts 62°
2026-04-26 15:50 48.64924 2.11825 3258 ft 167 kts 62°
2026-04-26 15:51 48.65468 2.13344 3050 ft 163 kts 61°
2026-04-26 15:51 48.65997 2.14824 2837 ft 160 kts 62°
2026-04-26 15:51 48.66524 2.16302 2625 ft 159 kts 61°
2026-04-26 15:51 48.67043 2.17758 2399 ft 154 kts 60°
2026-04-26 15:52 48.67542 2.19159 2214 ft 149 kts 60°
2026-04-26 15:52 48.68026 2.20518 2013 ft 147 kts 61°
2026-04-26 15:52 48.68501 2.21851 1804 ft 140 kts 61°
2026-04-26 15:52 48.68809 2.22718 1683 ft 136 kts 61°
2026-04-26 15:53 48.69398 2.24373 1455 ft 135 kts 61°
2026-04-26 15:53 48.69837 2.25609 1273 ft 132 kts 60°
2026-04-26 15:53 48.70277 2.26846 1103 ft 133 kts 58°
2026-04-26 15:53 48.70708 2.28059 929 ft 133 kts 61°
2026-04-26 15:54 48.71140 2.29277 757 ft 131 kts 61°
2026-04-26 15:54 48.71579 2.30514 576 ft 134 kts 63°
2026-04-26 15:54 48.72019 2.31754 391 ft 134 kts 62°
2026-04-26 15:54 48.72448 2.32972 296 ft 116 kts 59°
2026-04-26 15:55 48.72749 2.33816 297 ft 56 kts 62°
2026-04-26 15:55 48.72889 2.34225 294 ft 37 kts 65°
2026-04-26 15:55 48.72991 2.34567 293 ft 34 kts 77°
2026-04-26 15:55 48.73022 2.34869 296 ft 25 kts 81°
2026-04-26 15:56 48.73041 2.35069 294 ft 13 kts 85°
2026-04-26 15:56 48.73033 2.35181 297 ft 3 kts 104°
2026-04-26 15:56 48.73026 2.35214 294 ft 4 kts 107°
2026-04-26 15:56 48.73020 2.35248 297 ft 3 kts 105°
2026-04-26 15:57 48.73016 2.35276 297 ft 2 kts 98°
2026-04-26 15:57 48.73015 2.35297 296 ft 2 kts 94°
2026-04-26 15:57 48.73015 2.35312 296 ft 1 kts 91°
2026-04-26 15:57 48.73015 2.35320 296 ft 2 kts 87°
2026-04-26 15:58 48.73042 2.35417 297 ft 10 kts 59°
2026-04-26 15:58 48.73085 2.35517 299 ft 13 kts 55°
2026-04-26 15:58 48.73071 2.35643 298 ft 14 kts 102°
2026-04-26 15:58 48.73073 2.35747 294 ft 9 kts 135°
2026-04-26 15:59 48.73041 2.35791 296 ft 2 kts 136°
2026-04-26 15:59 48.73029 2.35809 295 ft 2 kts 134°
2026-04-26 15:59 48.73019 2.35825 296 ft 2 kts 134°
2026-04-26 15:59 48.73018 2.35828 294 ft 0 kts 134°